Skip Page Navigation
NASA JPL Caltech
NASA Logo - Jet Propulsion Laboratory + View the NASA Portal
+ Center for Near-Earth Object Studies
JPL Home Earth Solar System Stars & Galaxies Technology
JPL Solar System Dynamics
BODIES ORBITS EPHEMERIDES TOOLS PHYSICAL DATA DISCOVERY FAQ SITE MAP
JPL Small-Body Database Browser
Search: [ help ]  
351986 (2006 UV134)
Classification: Main-belt Asteroid          SPK-ID: 2351986
Ephemeris | Orbit Diagram | Orbital Elements | Mission Design | Physical Parameters | Discovery Circumstances ]

[ show orbit diagram ]
Orbital Elements at Epoch 2459000.5 (2020-May-31.0) TDB
Reference: JPL 11 (heliocentric ecliptic J2000)
 Element Value Uncertainty (1-sigma)   Units 
e .179365258090901 5.2939e-08  
a 3.079470329036134 4.5999e-08 au
q 2.527120338685296 1.6816e-07 au
i 16.01878414006843 8.2989e-06 deg
node 210.3275974915738 2.0624e-05 deg
peri 115.6755399323633 3.0322e-05 deg
M 240.4602709818174 2.5092e-05 deg
tp 2459655.923832418883
(2022-Mar-17.42383242)
0.00014669 TDB
period 1973.842350227413
5.40
4.4226e-05
1.211e-07
d
yr
n .1823853865322745 4.0866e-09 deg/d
Q 3.631820319386971 5.425e-08 au
  Orbit Determination Parameters
   # obs. used (total)      152  
   data-arc span      4962 days (13.59 yr)  
   first obs. used      2006-09-26  
   last obs. used      2020-04-27  
   planetary ephem.      DE431  
   SB-pert. ephem.      SB431-N16  
   condition code      0  
   norm. resid. RMS      .66193  
   source      ORB  
   producer      Otto Matic  
   solution date      2020-May-21 22:56:10  

Additional Information
 Earth MOID = 1.56547 au 
 Jupiter MOID = 2.04638 au 
 T_jup = 3.145 
[ hide covariance matrix ]
Orbital Elements at Epoch 2457287.5 (2015-Sep-22.0) TDB
Reference: JPL 11 (heliocentric ecliptic J2000)
 Element Value Uncertainty (1-sigma)   Units 
e .1780132112212305 5.297e-08  
q 2.532177277050094 1.6817e-07 au
tp 2457681.480831446603
(2016-Oct-19.98083145)
0.00012359 TDB
node 210.3550584226137 2.062e-05 deg
peri 115.7797435523953 3.0447e-05 deg
i 16.0165881780856 8.2982e-06 deg
  Orbit Determination Parameters
   # obs. used (total)      152  
   data-arc span      4962 days (13.59 yr)  
   first obs. used      2006-09-26  
   last obs. used      2020-04-27  
   planetary ephem.      DE431  
   SB-pert. ephem.      SB431-N16  
   condition code      0  
   norm. resid. RMS      .66193  
   source      ORB  
   producer      Otto Matic  
   solution date      2020-May-21 22:56:10  

Additional Information
 Jupiter MOID = 2.04638 au 
 T_jup = 3.145 
Orbit Covariance (6×6)
  e q tp node peri i
e 2.805797724754205E-15 -8.680746650717695E-15 1.282179091333031E-12 -2.669653820738657E-15 2.134577032157743E-13 -1.120034787093472E-14
q -8.680746650717695E-15 2.828053289314655E-14 -1.997550603789186E-12 1.177942585600059E-14 -3.723645533194837E-13 4.131297059942694E-14
tp 1.282179091333031E-12 -1.997550603789186E-12 1.527340075817796E-8 1.531494848552363E-11 2.784728409889327E-9 -1.401303043914941E-11
node -2.669653820738657E-15 1.177942585600059E-14 1.531494848552363E-11 4.252035783211385E-10 -4.054146750474648E-10 1.34850412893909E-11
peri 2.134577032157743E-13 -3.723645533194837E-13 2.784728409889327E-9 -4.054146750474648E-10 9.270270072030984E-10 -1.537255493472745E-11
i -1.120034787093472E-14 4.131297059942694E-14 -1.401303043914941E-11 1.34850412893909E-11 -1.537255493472745E-11 6.885933308315376E-11

Ephemeris | Orbit Diagram | Orbital Elements | Mission Design | Physical Parameters | Discovery Circumstances ]

Physical Parameter Table
Parameter Symbol Value Units Sigma Reference Notes
absolute magnitude H 16.1   n/a MPO434222  

351986 (2006 UV134)          Discovered 2006-Oct-19 by Spacewatch at Kitt Peak
Reference: 20130127/Numbers.arcLast Updated: 2013-01-31
Ephemeris | Orbit Diagram | Orbital Elements | Mission Design | Physical Parameters | Discovery Circumstances ]
ABOUT SSD CREDITS/AWARDS PRIVACY/COPYRIGHT GLOSSARY LINKS
FirstGov 2020-Aug-05 11:20 UT
(server date/time)  
NASA Home Page
Site Manager:   Ryan S. Park
Webmaster  Alan B. Chamberlin